Location: Arthez
(43.0833°N, 0.2500°W)
Time: 11:37:12
(UTC+00:00)

Cosmos 304 Rocket - Pass Details

Date: 07 June 2022
Orbit: 679 x 686 km, 74.0° (Epoch: 01 July)

Event Time Altitude Azimuth Distance (km) Brightness Sun altitude
Exits shadow 21:45:39 26° 113° (ESE) 1,353 4.8 -17.2°
Maximum altitude 21:46:16 26° 100° (E) 1,329 4.9 -17.3°
Drops below altitude 10° 21:50:16 10° 44° (NE) 2,141 6.5 -17.7°
Sets 21:52:51 0° 32° (NNE) 3,061 7.5 -17.9°
